Regional Weather Roundup
Issued by NWS

Home | Current Version | Previous Version | Graphics & Text | Print | Product List | Glossary On
Versions: 1 2 3 4 5 6 7 8 9 10 11 12 13 14 15 16 17 18 19 20 21 22 23 24 25 26 27 28 29 30 31 32 33 34 35 36 37 38 39 40 41 42 43 44 45 46 47 48 49 50
000
ASUS43 KTOP 052259
RWRKS

WEATHER ROUNDUP FOR KANSAS
NATIONAL WEATHER SERVICE GOODLAND KS
600 PM CDT THU MAY 05 2016

NOTE:  "FAIR" INDICATES FEW OR NO CLOUDS BELOW 12,000 FEET WITH NO
SIGNIFICANT WEATHER AND/OR OBSTRUCTIONS TO VISIBILITY.

KSZ001>006-013>018-027>032-041>047-060000-
NORTHWEST KANSAS

CITY           SKY/WX    TMP DP  RH WIND       PRES   REMARKS
GOODLAND       CLOUDY    78  43  28 SE15      30.01F
HAYS           SUNNY     79  46  31 SE12      30.02F
HILL CITY      SUNNY     81  45  28 S9        30.02F
RUSSELL        SUNNY     78  46  32 SE7       30.01F
$$

KSZ061>065-074>080-084>089-060000-
SOUTHWEST KANSAS

CITY           SKY/WX    TMP DP  RH WIND       PRES   REMARKS
DODGE CITY     SUNNY     77  48  35 SE14      30.03F
ELKHART          N/A     84  43  23 S9          N/A
GARDEN CITY    SUNNY     80  44  27 SE20      30.00F
GREAT BEND     SUNNY     79  45  29 SE6       30.02F
LIBERAL        SUNNY     82  46  28 SE15      30.00F
$$

KSZ066>073-081>083-090>101-060000-
SOUTHEAST KANSAS

CITY           SKY/WX    TMP DP  RH WIND       PRES   REMARKS
CHANUTE        SUNNY     77  42  28 N7        30.02F
COFFEYVILLE    SUNNY     77  44  30 N9        30.02F
HUTCHINSON     SUNNY     80  39  23 SE5       30.03F
MEDICINE LODGE   N/A     79  42  26 S5        30.02F
NEWTON         SUNNY     77  39  25 NE5       30.06S
PARSONS        SUNNY     77  46  33 N7        30.03F
WICHITA INTL   MOSUNNY   81  39  22 VRB3      30.02F
WICHITA JABRA  SUNNY     79  40  24 NE5       30.02F
WINFIELD       SUNNY     80  41  24 N8        30.41R
$$

KSZ007>012-019>026-033>040-048>060-102>105-060000-
NORTHEAST KANSAS

CITY           SKY/WX    TMP DP  RH WIND       PRES   REMARKS
CONCORDIA      SUNNY     79  40  24 CALM      30.01F
EMPORIA        SUNNY     76  41  28 E5        30.02F
LAWRENCE       SUNNY     74  40  29 VRB6      30.03F
MANHATTAN      SUNNY     79  41  25 VRB6      30.01F
OLATHE IND     SUNNY     72  39  30 N8        30.04F
OLATHE EXE     SUNNY     73  35  25 N7        30.03F
SALINA         SUNNY     79  41  25 SE6       30.02F
TOPEKA BILLARD SUNNY     75  41  29 NE6       30.02F
TOPEKA FORBES  SUNNY     76  42  29 CALM      30.03S
$$



USA.gov is the U.S. government's official web portal to all federal, state and local government web resources and services.